Weather observations for the past three days for
Cape Romanzof, Cape Romanzof LRRS Airport
Imperial (Metric)
Date Time (akdt) Wind (mph) Vis. (mi.) Weather Sky Cond. Temperature (ºF) Relative Humidity Wind Chill (°F) Heat Index (°F) Pressure Precipitation (in)
Air Dwpt 6 hour altimeter (in) sea level (mb) 1 hr 3 hr 6 hr
Max. Min.
18 11:55 SW 10 0.25 Light Showers Rain Fog VV002 41.4 41.4 100% 36 30.06 1018.5
18 10:55 SW 9 0.15 Light Showers Rain Fog VV002 41.4 41.4 100% 36 30.06 1018.3
18 09:55 SW 12 0.15 Light Showers Rain Fog VV002 41 41 100% 35 30.06 1018.3
18 09:26 SW 10 0.25 Light Showers Rain Fog VV002 41 41 100% 35 30.05 1018.0
18 07:55 SW 9 0.15 Light Rain Fog VV002 41.5 41.5 100% 36 30.04 1017.7
18 06:55 SW 10 0.15 Light Rain Fog VV002 41.5 41.4 99% 36 30.03 1017.5
18 05:55 W 10 0.15 Light Rain Fog VV002 41.5 41.4 99% 36 30.03 1017.2
18 04:55 SW 8 0.15 Light Rain Fog VV002 41.5 41.4 99% 37 30.03 1017.1
18 03:55 SW 8 G 32 0.75 Light Drizzle Fog/Mist BKN002 41.5 41 43 41.4 98% 37 30.02 1016.9
18 02:55 SW 7 10.00 Mostly Cloudy BKN002 41.9 41.4 98% 38 30.02 1016.8
18 01:55 W 10 G 25 10.00 Overcast OVC003 42.3 41.7 98% 37 30.02 1016.8
18 00:55 W 8 G 40 10.00 Overcast OVC003 42.4 41.4 96% 38 30.01 1016.6
17 23:55 Vrbl 3 10.00 Overcast OVC003 42.1 41.2 97% 30 1016.3
17 22:55 W 3 G 21 10.00 Mostly Cloudy BKN004 42.6 41.2 95% 29.99 1016.0
17 21:55 W 8 G 33 10.00 Mostly Cloudy BKN004 BKN120 43 41.7 48.6 42.4 95% 39 29.99 1016.0
17 20:55 W 8 10.00 Mostly Cloudy BKN004 43.3 41.5 93% 39 29.98 1015.8
17 19:55 W 2 10.00 Light Showers Rain BKN004 43 41.7 95% 29.98 1015.7
17 18:55 W 8 G 18 10.00 Mostly Cloudy BKN004 43.2 41.2 93% 39 29.98 1015.7
17 17:55 NW 10 G 22 10.00 Mostly Cloudy BKN005 BKN140 44.6 41.2 88% 40 29.97 1015.4
17 16:55 NW 8 10.00 Mostly Cloudy BKN005 45 42.1 90% 41 29.97 1015.4
17 15:55 NW 13 10.00 A Few Clouds FEW004 46.2 41.5 49.1 41.4 84% 41 29.97 1015.3
17 14:55 W 13 G 22 10.00 Fair CLR 45.5 41.7 87% 40 29.95 1014.7
17 13:55 E 5 10.00 A Few Clouds FEW016 47.1 40.8 79% 46 29.95 1014.3
17 12:55 N 8 G 14 10.00 A Few Clouds FEW010 46 39.4 78% 42 29.95 1014.4
17 10:55 NE 5 10.00 Mostly Cloudy BKN010 42.8 39.2 87% 41 29.93 1014.0
17 07:55 Vrbl 7 10.00 Mostly Cloudy BKN008 BKN030 BKN050 41 39.2 93% 37 29.9 1013.0
17 05:55 Vrbl 7 10.00 Mostly Cloudy BKN010 41.5 37.8 86% 38 29.9 1012.8
17 04:55 Vrbl 5 10.00 Overcast OVC010 41.9 38.3 87% 40 29.89 1012.7
17 03:55 Vrbl 5 10.00 Overcast SCT011 OVC023 42.1 37.8 43.2 41.4 85% 40 29.9 1012.9
17 02:55 N 3 10.00 Overcast SCT009 OVC021 41.7 38.5 88% 29.89 1012.7
17 01:55 Vrbl 7 10.00 Overcast FEW015 OVC025 41.7 37.6 85% 38 29.89 1012.7
17 00:55 N 14 10.00 Overcast OVC048 41.5 37.8 86% 35 29.88 1012.4
16 23:55 N 18 10.00 Mostly Cloudy BKN050 41.9 37.4 84% 34 29.87 1012.1
16 22:55 N 13 10.00 Partly Cloudy SCT010 42.3 37.9 85% 36 29.87 1012.1
16 21:55 NW 14 G 25 10.00 Mostly Cloudy BKN010 43.2 38.7 45.3 42.8 84% 37 29.87 1011.8
16 20:55 N 14 10.00 Mostly Cloudy BKN010 43.3 38.8 84% 37 29.87 1011.8
16 19:55 NW 17 10.00 Mostly Cloudy BKN012 BKN100 43.7 39.2 84% 37 29.86 1011.7
16 18:55 NW 21 G 24 10.00 Mostly Cloudy and Breezy BKN013 44.1 37.9 79% 36 29.86 1011.6
16 17:55 NW 12 10.00 Mostly Cloudy SCT010 BKN110 BKN120 44.1 38.7 81% 39 29.86 1011.6
16 16:55 NW 12 G 21 10.00 Mostly Cloudy BKN010 BKN110 43.3 38.5 83% 38 29.86 1011.6
16 15:55 NW 15 G 23 10.00 Mostly Cloudy SCT012 BKN120 43.5 38.5 43.9 41.2 82% 37 29.86 1011.6
16 14:55 NW 15 10.00 Mostly Cloudy BKN009 BKN032 43 38.5 84% 36 29.86 1011.5
16 13:55 N 13 10.00 Overcast OVC009 42.3 39.4 90% 36 29.86 1011.5
16 12:55 N 10 10.00 Mostly Cloudy BKN009 42.6 39 87% 37 29.85 1011.2
16 11:55 N 12 10.00 Overcast OVC010 42.1 38.7 88% 36 29.84 1010.7
16 10:55 N 14 10.00 Mostly Cloudy BKN009 41.7 38.7 89% 35 29.82 1010.4
16 09:55 N 15 10.00 Overcast OVC008 41.2 38.3 41.4 39.7 90% 34 29.82 1010.4
16 08:55 N 14 10.00 Overcast OVC006 40.6 38.3 91% 34 29.81 1009.9
16 07:55 N 13 10.00 Overcast OVC005 41 39.2 93% 34 29.8 1009.7
16 06:55 N 10 10.00 Overcast OVC006 39.9 38.3 94% 34 29.8 1009.7
16 05:55 N 12 1.75 Light Drizzle Fog/Mist OVC007 39.9 38.7 95% 34 29.8 1009.7
16 04:55 N 10 10.00 Overcast OVC007 40.3 38.5 93% 34 29.79 1009.4
16 03:55 N 9 4.00 Light Showers Rain OVC006 40.1 38.7 43.3 40.1 95% 35 29.79 1009.3
16 02:55 N 9 10.00 Overcast OVC007 40.5 38.7 93% 35 29.79 1009.2
16 01:55 NE 3 10.00 Overcast OVC006 40.6 38.5 92% 29.78 1008.9
16 00:55 N 12 10.00 Overcast OVC004 40.8 39.7 96% 35 29.77 1008.7
15 23:55 N 13 9.00 Overcast OVC003 41.4 40.8 98% 35 29.76 1008.3
15 22:55 N 14 1.75 Light Showers Rain Fog/Mist OVC003 42.4 41.5 97% 36 29.75 1008.0
15 21:55 N 10 7.00 Light Showers Rain OVC004 43.3 42.3 45.3 41.9 96% 38 29.74 1007.5
15 20:55 NW 12 9.00 Overcast OVC003 43.5 42.6 97% 38 29.74 1007.5
15 19:55 NW 10 5.00 Fog/Mist OVC004 44.1 43 96% 39 29.73 1007.2
15 18:55 N 10 9.00 Overcast OVC003 44.1 42.8 95% 39 29.72 1006.9
15 17:55 NW 13 5.00 Fog/Mist BKN002 43.2 43 99% 37 29.72 1006.8
15 16:55 NW 13 G 26 1.50 Drizzle Fog/Mist OVC002 42.3 42.1 99% 36 29.72 1006.6
15 15:55 NW 13 10.00 Overcast OVC003 42.3 41.2 43.3 39.4 96% 36 29.7 1006.1 0.02
15 14:55 NW 10 8.00 Drizzle OVC003 41.5 41 98% 36 29.68 1005.6
15 13:55 W 15 10.00 Overcast OVC005 41 39 93% 34 29.67 1005.1
15 12:55 W 13 10.00 Overcast OVC007 41.4 39.6 93% 35 29.66 1004.8 0.02
Date Time (akdt) Wind (mph) Vis. (mi.) Weather Sky Cond. Air Dwpt Max. Min. Relative Humidity Wind Chill (°F) Heat Index (°F) altimeter (in) sea level (mb) 1 hr 3 hr 6 hr
6 hour
Temperature (ºF) Pressure Precipitation (in)